Weather History for KFOK - February, 2014

Change the Weather History Date:

Monday, February 24, 2014

  Actual Average Record
Temperature  
Mean Temperature 34 °F -  
Max Temperature 41 °F 39 °F 48 °F (2012)
Min Temperature 26 °F 22 °F -9 °F (2015)
Degree Days  
Heating Degree Days 31    
Moisture  
Dew Point 19 °F    
Average Humidity 56    
Maximum Humidity 92    
Minimum Humidity 30    
Precipitation  
Precipitation 0.03 in - - ()
Sea Level Pressure  
Sea Level Pressure 29.89 in    
Wind  
Wind Speed 11 mph (WNW)    
Max Wind Speed 23 mph    
Max Gust Speed 32 mph    
Visibility 10 miles    
Events Rain    
Averages and records for this station are not official NWS values.
T = Trace of Precipitation, MM = Missing Value Source: NWS Daily Summary

Daily Weather History Graph

Daily Weather History Graph

Search for Another Location

Airport or City:

Trip Planner

Search our weather history database for the weather conditions in past years. The results will help you decide how hot, cold, wet, or windy it might be!

Date:

Astronomy

Feb. 24, 2014 Rise Set
Actual Time 6:32 AM EST 5:35 PM EST
Civil Twilight 6:04 AM EST 6:03 PM EST
Nautical Twilight 5:32 AM EST 6:35 PM EST
Astronomical Twilight 5:00 AM EST 7:07 PM EST
Moon 2:29 AM EST (2/24) 12:32 PM EST (2/24)
Length of Visible Light 11h 59m
Length of Day
11h 03m
Waning Crescent, 28% of the Moon is Illuminated
Feb 24
Waning Crescent
Mar 1
New
Mar 8
First Quarter
Mar 16
Full
Mar 23
Last Quarter

Hourly Weather History & Observations

Time (EST) Temp. Windchill Dew Point Humidity Pressure Visibility Wind Dir Wind Speed Gust Speed Precip Events Conditions
12:53 AM 39.9 °F 34.5 °F 32.0 °F 73% 29.83 in 10.0 mi West 8.1 mph - N/A   Overcast
1:53 AM 41.0 °F 34.7 °F 30.9 °F 67% 29.84 in 10.0 mi WNW 10.4 mph - 0.00 in Rain Light Rain
2:07 AM 39.2 °F 33.6 °F 32.0 °F 75% 29.83 in 9.0 mi WNW 8.1 mph - 0.01 in Rain Light Rain
2:51 AM 37.4 °F 34.9 °F 33.8 °F 87% 29.82 in 10.0 mi SW 3.5 mph - 0.03 in Rain Light Rain
2:53 AM 37.9 °F 34.4 °F 33.1 °F 83% 29.82 in 10.0 mi SW 4.6 mph - 0.03 in Rain Light Rain
3:53 AM 37.9 °F 32.7 °F 34.0 °F 86% 29.82 in 10.0 mi SW 6.9 mph - 0.00 in   Overcast
4:30 AM 37.4 °F 29.8 °F 33.8 °F 87% 29.83 in 10.0 mi SW 11.5 mph - N/A   Mostly Cloudy
4:53 AM 37.0 °F 29.8 °F 33.1 °F 86% 29.83 in 10.0 mi WSW 10.4 mph - N/A   Partly Cloudy
5:53 AM 36.0 °F 29.6 °F 33.1 °F 89% 29.84 in 10.0 mi West 8.1 mph - N/A   Partly Cloudy
6:53 AM 33.1 °F 28.7 °F 30.9 °F 92% 29.83 in 9.0 mi NW 4.6 mph - N/A   Clear
7:53 AM 35.1 °F 27.4 °F 27.0 °F 72% 29.87 in 10.0 mi NNW 10.4 mph - N/A   Clear
8:53 AM 36.0 °F 26.3 °F 19.9 °F 52% 29.88 in 10.0 mi NW 16.1 mph 23.0 mph N/A   Clear
9:53 AM 37.0 °F 28.5 °F 17.1 °F 44% 29.88 in 10.0 mi NW 13.8 mph 23.0 mph N/A   Clear
10:53 AM 37.9 °F 28.5 °F 12.0 °F 35% 29.87 in 10.0 mi WNW 17.3 mph 24.2 mph N/A   Clear
11:53 AM 37.9 °F 27.3 °F 10.9 °F 33% 29.86 in 10.0 mi WNW 21.9 mph 31.1 mph N/A   Clear
12:53 PM 37.9 °F 27.1 °F 10.0 °F 32% 29.84 in 10.0 mi WNW 23.0 mph 28.8 mph N/A   Clear
1:53 PM 37.9 °F 27.3 °F 10.0 °F 32% 29.84 in 10.0 mi West 21.9 mph 28.8 mph N/A   Partly Cloudy
2:53 PM 37.0 °F 25.9 °F 8.1 °F 30% 29.86 in 10.0 mi WNW 23.0 mph 31.1 mph N/A   Scattered Clouds
3:53 PM 36.0 °F 24.4 °F 8.1 °F 31% 29.87 in 10.0 mi NW 23.0 mph 32.2 mph N/A   Partly Cloudy
4:53 PM 34.0 °F 25.5 °F 8.1 °F 34% 29.91 in 10.0 mi NW 11.5 mph 27.6 mph N/A   Clear
5:53 PM 32.0 °F 23.0 °F 9.0 °F 38% 29.94 in 10.0 mi WNW 11.5 mph 21.9 mph N/A   Clear
6:53 PM 30.9 °F 22.2 °F 10.9 °F 43% 29.98 in 10.0 mi WNW 10.4 mph - N/A   Clear
7:53 PM 28.9 °F 19.8 °F 10.9 °F 47% 30.01 in 10.0 mi WNW 10.4 mph - N/A   Clear
8:53 PM 30.0 °F 18.7 °F 10.0 °F 43% 30.02 in 10.0 mi WNW 16.1 mph 24.2 mph N/A   Partly Cloudy
9:53 PM 28.0 °F 16.1 °F 8.1 °F 43% 30.04 in 10.0 mi NW 16.1 mph 28.8 mph N/A   Clear
10:53 PM 27.0 °F 13.2 °F 5.0 °F 39% 30.05 in 10.0 mi WNW 20.7 mph 32.2 mph N/A   Clear
11:53 PM 26.1 °F 14.0 °F 6.1 °F 43% 30.06 in 10.0 mi WNW 15.0 mph 23.0 mph N/A   Clear